Temperature
28 25 24 25 25 26 26 26 26 27 28 27 26 25 26 26 25 25 24 24 24 24 24 24 23 23 23 22 22 22 21 21 21 20 20 20 20 19 19 19 19 19 19 19
25 25 27 28 28 27 27 26 26 27 28 27 26 25 25 25 25 25 24 24 24 24 24 23 23 23 23 22 22 22 22 21 21 20 20 20 20 19 19 19 19 19 19 19
26 26 28 29 28 27 27 26 27 27 27 26 26 25 24 25 25 25 25 24 24 24 24 23 23 23 23 22 22 22 22 21 21 20 20 20 19 19 19 19 19 19 19 19
26 28 29 28 28 28 27 28 28 28 26 24 25 23 23 23 23 24 25 24 24 24 24 23 23 23 23 23 23 22 22 21 21 21 20 20 20 20 20 19 19 19 19 19
26 28 28 28 29 29 28 29 28 27 25 24 24 23 23 23 23 24 24 25 24 24 24 23 23 23 23 23 22 22 22 21 21 21 20 20 20 19 19 19 19 19 19 18
27 28 29 29 30 30 29 27 26 24 22 23 24 23 22 22 23 24 24 24 24 24 23 23 23 23 23 22 22 22 21 21 21 20 20 20 20 19 19 19 19 19 18 18
26 28 29 29 28 28 27 24 23 23 22 23 23 23 22 23 24 24 23 24 23 23 23 23 23 22 22 22 22 22 21 21 21 20 20 20 20 19 19 19 19 19 18 18
25 25 27 29 28 27 27 25 23 24 23 22 23 22 22 24 24 24 24 24 23 23 23 23 22 22 22 22 22 21 21 21 21 20 20 20 19 19 19 19 19 19 18 18
24 25 28 29 30 28 27 26 24 23 23 22 22 22 23 23 23 23 23 23 23 22 22 22 22 22 22 22 21 21 21 21 21 20 20 20 19 19 19 19 19 18 18 18
25 25 27 29 29 28 27 26 23 22 23 23 23 23 22 22 22 22 22 22 23 23 22 22 22 22 22 22 22 21 21 21 20 20 20 19 19 19 19 19 19 18 18 18
25 24 25 26 27 27 26 26 23 21 21 22 22 22 24 22 22 22 22 22 22 22 22 22 22 22 22 21 21 21 21 20 20 19 19 19 19 19 19 19 18 18 18 18
24 22 23 25 26 27 26 25 23 23 22 21 21 22 24 23 22 22 22 22 22 22 22 22 22 21 21 21 21 21 20 20 20 19 19 19 19 18 18 18 18 18 18 17
25 22 22 23 24 25 26 26 24 22 21 20 21 22 23 22 22 22 22 22 22 22 22 22 21 21 21 21 20 20 20 20 19 19 19 19 18 18 18 18 18 18 17 17
25 22 22 23 23 24 25 26 25 22 21 21 21 22 22 21 21 21 22 22 22 22 22 21 21 21 20 20 20 20 20 19 19 19 19 18 18 18 18 17 17 17 17 17
22 22 23 24 25 26 26 26 26 24 22 22 22 22 22 21 21 21 21 21 21 21 21 21 21 21 20 20 20 20 19 19 19 19 18 18 18 17 17 17 17 17 17 17
21 22 23 23 25 25 25 26 26 25 24 23 22 22 21 21 21 21 21 21 21 21 21 21 21 20 20 20 20 19 19 19 19 18 18 18 17 17 17 17 17 17 16 16
20 21 21 21 23 24 23 24 25 24 23 23 22 21 21 21 21 21 21 21 21 21 21 21 20 20 20 20 19 19 19 18 18 18 18 17 17 17 17 17 16 16 16 16
20 19 18 20 22 23 22 24 25 24 23 22 22 21 21 21 21 22 22 21 21 21 21 21 20 20 20 19 19 19 18 18 18 17 17 17 17 17 16 16 16 16 16 15
20 19 19 19 20 21 23 24 24 23 22 22 21 21 21 21 21 21 21 21 21 21 21 20 20 20 20 19 19 18 18 17 17 17 17 16 16 16 16 16 15 15 15 15
19 18 18 19 21 21 22 23 24 22 21 21 21 20 20 20 18 18 21 20 20 20 20 20 20 19 19 19 18 18 17 17 17 17 17 16 16 16 15 15 15 15 15 15
19 19 18 19 19 20 21 22 23 21 20 21 21 21 21 20 19 20 20 20 20 20 20 20 19 19 19 18 18 18 17 17 16 16 16 16 16 15 15 15 15 14 14 14
18 18 18 18 19 19 21 21 20 19 20 21 21 21 21 21 20 20 20 20 20 19 19 19 19 19 18 18 18 17 17 16 16 16 16 15 15 15 14 14 14 14 14 14
17 18 17 17 18 19 20 20 21 21 20 21 21 21 21 20 20 20 19 19 19 19 19 18 18 18 17 17 17 17 16 16 16 15 15 15 15 14 14 14 14 14 13 13
17 17 16 17 18 19 20 20 20 21 20 21 21 21 21 20 20 19 19 19 19 18 18 18 18 18 17 17 17 16 16 16 15 15 15 14 14 14 14 14 14 13 13 13
17 17 16 16 18 18 19 20 20 20 20 20 20 20 20 20 19 19 19 18 18 18 18 17 17 17 16 16 16 16 16 15 15 15 14 14 14 14 14 13 13 13 13 13
16 16 16 16 17 17 18 19 20 20 19 19 19 19 19 19 19 18 18 18 18 17 17 17 17 16 16 16 16 16 15 15 15 14 14 14 14 13 13 13 13 13 13 12
Wind_Speed
2 2 5 9 8 8 6 4 7 7 3 3 4 5 7 7 7 8 8 9 10 10 8 9 10 11 10 9 8 7 7 6 5 3 3 3 2 1 1 1 2 2 2 2
3 6 11 7 5 5 6 6 8 6 2 3 4 3 4 6 8 10 11 11 10 8 7 8 9 10 10 10 9 8 8 7 6 4 3 3 3 2 2 1 1 2 2 2
8 9 6 5 7 5 6 6 6 4 2 3 4 1 1 3 2 5 8 9 10 11 10 9 9 10 10 10 10 9 8 7 7 5 4 2 2 1 1 0 1 1 2 2
7 9 8 7 8 6 7 8 6 4 2 2 3 2 4 4 3 4 7 8 9 9 9 9 10 10 11 10 10 8 8 7 7 6 6 5 3 2 3 2 1 1 1 2
7 6 6 8 9 7 7 6 4 3 2 0 0 3 4 2 4 7 8 10 10 9 10 10 11 11 10 9 8 8 7 6 6 6 6 5 3 2 1 1 0 1 1 1
9 7 6 7 8 5 3 3 4 4 4 0 4 4 4 4 7 7 6 6 8 8 8 8 7 7 7 7 7 6 7 6 6 6 6 6 5 4 3 2 1 1 1 1
8 8 6 5 5 5 2 3 3 5 4 4 2 3 5 6 6 7 6 6 6 7 7 7 7 6 6 7 7 6 6 6 7 7 6 5 5 5 4 4 3 2 1 1
5 8 6 5 6 6 4 7 7 5 4 3 1 2 5 5 3 4 4 5 6 7 7 8 8 7 6 6 7 7 7 6 6 6 5 4 4 3 3 3 3 3 2 2
7 8 6 6 5 6 4 4 8 7 2 1 2 2 3 2 1 2 2 4 5 7 8 7 7 7 6 6 6 7 7 5 6 6 6 4 4 4 3 3 3 2 2 2
8 5 6 6 2 2 5 5 4 4 3 2 2 3 4 4 5 4 4 5 5 6 6 6 6 6 6 6 5 5 5 5 5 5 5 4 4 4 4 3 3 2 2 1
5 4 5 3 2 4 1 2 4 4 5 5 3 6 6 9 8 7 7 7 8 7 7 6 5 5 5 6 5 5 4 3 2 3 4 4 4 3 3 3 3 3 2 2
3 5 2 5 5 3 3 4 6 5 2 4 4 6 4 7 6 7 7 5 6 6 6 6 6 5 5 5 5 5 5 4 3 3 3 3 3 3 2 3 3 2 2 1
3 5 2 6 6 5 1 0 3 6 5 3 4 5 0 4 5 6 7 6 6 7 7 6 6 5 4 5 5 5 5 5 4 3 4 3 2 2 2 3 3 2 2 2
4 4 6 7 7 4 2 2 1 5 4 3 5 5 3 4 5 4 5 6 6 8 8 6 5 4 4 4 5 5 5 5 4 4 4 3 3 3 3 3 2 2 2 2
5 2 2 5 5 3 1 3 3 2 6 7 7 6 7 7 8 7 6 7 7 8 8 7 6 4 4 3 4 4 4 3 4 4 4 4 4 3 2 2 2 2 2 2
4 2 3 3 2 1 2 3 3 2 3 4 5 3 4 5 6 7 7 8 8 9 9 8 7 6 5 4 4 4 3 3 3 4 4 4 3 3 3 2 1 1 1 2
2 2 2 3 5 4 3 4 2 3 3 6 5 6 6 7 9 10 9 8 8 9 9 9 8 7 6 6 5 5 4 3 3 3 3 3 3 3 3 2 1 2 2 1
4 2 2 0 4 2 7 4 5 5 2 2 4 5 8 8 7 6 7 8 7 7 7 7 6 6 5 4 4 4 4 4 3 3 3 2 2 3 2 2 2 2 2 2
6 6 3 2 1 3 5 4 1 4 2 2 6 6 5 6 6 2 2 4 5 6 6 5 6 6 5 5 5 5 4 3 3 2 2 2 2 2 2 2 2 2 2 2
3 5 4 3 2 3 5 6 1 6 2 3 4 6 7 6 4 2 2 3 4 4 4 5 5 5 5 5 5 5 3 3 2 2 2 2 2 3 3 3 2 2 2 2
3 3 3 3 3 4 5 5 4 4 4 3 2 5 5 4 5 4 3 4 5 5 6 6 6 5 4 5 5 4 3 2 2 2 1 1 1 2 2 2 1 1 1 0
3 2 2 3 2 4 5 3 4 4 3 1 3 4 5 5 6 6 5 5 6 6 6 6 5 4 3 4 6 4 2 2 1 1 1 0 0 1 1 1 0 0 1 1
1 4 4 4 5 4 1 3 4 5 4 3 3 5 8 7 5 5 5 5 5 5 5 5 6 5 3 3 5 4 1 1 1 2 1 0 0 0 1 1 1 0 0 1
4 2 3 2 1 1 3 4 4 4 4 3 5 6 7 7 6 5 4 4 4 3 4 4 5 5 3 2 3 3 2 2 2 1 0 1 0 0 1 0 1 1 1 1
4 2 2 1 1 3 4 3 4 4 4 4 4 5 6 7 5 4 4 4 4 4 3 3 4 4 3 2 2 2 2 3 2 1 0 0 0 1 1 1 2 2 3 4
2 2 3 4 4 3 3 1 3 5 5 4 5 3 4 5 5 5 4 3 4 4 3 3 3 4 3 2 2 2 2 3 3 2 1 1 1 1 1 1 2 3 2 3
Wind_Direction
271 123 232 229 215 220 230 254 278 278 239 153 166 162 171 164 157 163 166 169 174 182 183 170 166 158 152 151 153 153 150 158 150 139 140 142 150 168 159 177 174 194 210 177
340 261 242 229 235 244 238 263 278 292 273 143 143 142 159 178 183 177 173 173 178 175 174 168 162 159 160 162 161 158 161 165 163 163 158 154 156 175 180 189 174 194 183 168
224 245 254 245 245 244 254 230 238 250 5 61 99 47 219 237 186 168 177 177 177 174 176 170 164 165 164 166 167 169 169 166 165 154 131 122 96 58 57 222 232 223 169 160
250 251 257 264 256 229 253 241 222 215 126 245 156 184 257 237 227 192 189 186 183 175 171 168 166 166 172 177 172 166 168 166 164 154 149 154 166 184 213 213 234 267 207 179
253 248 248 259 255 224 226 239 210 201 150 92 124 140 262 225 208 214 204 193 185 176 173 174 176 176 174 172 171 169 163 163 162 163 164 164 175 191 185 147 221 282 285 245
248 252 236 243 262 235 219 25 18 42 80 342 236 156 254 226 211 209 208 198 178 165 165 165 171 166 162 159 161 162 160 165 166 167 169 169 170 168 158 173 202 244 263 276
285 282 262 243 276 298 50 82 9 348 4 258 236 139 238 249 207 189 185 188 171 156 153 150 151 157 158 161 162 161 169 178 178 171 175 176 174 172 177 188 199 200 209 236
238 275 262 240 217 222 228 155 172 207 226 259 336 191 249 250 202 163 157 165 156 153 155 154 156 157 159 159 158 162 174 182 180 174 177 175 172 178 191 196 189 190 200 215
200 246 266 255 235 187 210 219 178 153 172 172 257 260 301 8 105 148 155 148 149 155 153 151 150 152 157 160 164 171 171 180 184 179 173 171 174 179 189 191 185 191 200 206
176 230 276 276 315 303 170 167 94 114 160 232 264 240 231 218 213 193 160 148 146 152 148 150 152 156 156 162 164 157 160 176 191 185 183 182 189 193 190 182 184 192 203 204
171 182 289 333 240 243 254 104 116 124 153 161 217 256 216 195 192 174 160 148 150 148 141 149 148 150 151 148 149 145 137 150 176 193 193 187 193 198 188 189 198 201 207 194
163 141 241 267 266 218 175 184 150 148 207 159 178 255 248 180 163 155 153 149 152 146 140 139 133 128 139 151 163 159 152 165 191 196 188 194 198 189 186 201 205 200 205 206
116 114 72 339 336 352 21 256 149 138 129 153 175 253 286 140 136 148 154 154 150 142 133 127 120 124 147 158 163 163 170 178 183 169 166 178 190 189 205 222 219 204 202 203
95 109 160 193 221 229 273 296 139 117 140 182 205 210 193 158 142 145 157 151 140 144 142 133 129 138 159 168 165 170 182 183 172 162 165 175 196 194 205 218 216 210 200 205
74 101 208 221 225 197 229 240 191 159 174 174 198 186 203 183 165 164 158 147 141 146 146 143 146 161 166 159 156 162 171 178 171 166 174 189 198 194 196 206 215 223 214 220
53 65 14 335 311 315 321 284 224 191 147 152 152 195 206 157 138 142 145 147 154 159 161 162 163 163 168 170 167 162 173 180 162 169 188 191 183 189 202 209 199 219 246 258
55 82 49 298 314 16 312 270 178 126 141 152 173 204 162 140 147 159 159 153 165 168 170 173 173 176 178 181 179 173 178 175 163 174 183 185 186 197 211 215 213 232 239 239
147 118 133 267 25 239 246 267 115 113 116 140 145 155 155 156 157 158 161 162 167 165 164 172 172 171 173 169 161 162 155 154 154 165 181 189 186 202 212 201 221 235 228 226
160 148 131 131 196 266 300 319 139 128 36 75 129 139 136 117 83 62 154 152 164 163 161 166 169 163 157 154 147 134 127 133 143 165 189 200 195 201 205 213 224 222 226 249
55 111 128 144 166 224 267 308 234 104 25 339 119 132 135 114 106 237 186 137 129 130 135 139 137 130 135 141 131 124 133 137 165 193 204 210 196 190 205 211 209 218 223 240
6 35 132 169 190 243 275 313 50 105 232 294 127 140 137 142 171 176 137 120 110 111 113 117 118 118 132 137 127 130 140 180 207 197 186 200 208 196 200 198 203 209 222 246
187 156 190 149 163 246 303 44 107 194 214 113 102 117 118 122 123 123 127 118 105 102 112 118 116 113 113 126 127 131 163 211 165 122 126 129 248 201 152 144 227 203 166 164
182 190 180 173 202 237 271 129 157 153 124 126 130 133 125 118 118 123 130 122 113 117 124 126 124 117 107 116 126 131 173 154 110 81 74 101 134 186 179 168 185 218 175 209
319 28 84 64 309 336 60 80 77 93 103 119 138 134 125 128 133 130 134 129 126 129 133 127 125 121 126 129 126 140 148 134 118 119 246 251 165 260 296 233 192 197 212 216
277 11 72 54 309 21 14 37 82 82 88 92 98 116 123 126 134 138 129 123 123 122 118 126 135 140 158 154 140 157 159 138 130 146 218 270 287 232 249 271 239 229 230 213
276 182 155 213 227 178 246 321 89 99 105 110 96 84 110 125 130 120 119 129 130 127 118 120 133 144 164 164 161 190 182 156 151 171 200 226 262 252 233 314 335 334 301 271
Height
1491 1497 1502 1497 1494 1495 1497 1501 1503 1495 1487 1490 1494 1495 1493 1493 1496 1497 1499 1500 1502 1502 1504 1505 1507 1509 1510 1511 1513 1514 1514 1515 1517 1517 1518 1519 1520 1521 1521 1521 1521 1522 1522 1522
1496 1498 1487 1485 1486 1490 1494 1500 1501 1493 1485 1489 1495 1496 1494 1493 1493 1494 1495 1497 1500 1501 1503 1504 1505 1507 1508 1510 1511 1512 1513 1514 1515 1516 1517 1518 1520 1520 1521 1521 1520 1521 1521 1521
1496 1489 1482 1483 1486 1491 1493 1497 1496 1495 1489 1491 1497 1505 1501 1495 1492 1493 1495 1495 1497 1499 1500 1502 1503 1505 1506 1508 1510 1511 1512 1513 1514 1516 1517 1518 1519 1519 1520 1519 1519 1519 1519 1519
1489 1481 1481 1483 1484 1486 1495 1484 1485 1488 1498 1508 1503 1522 1508 1499 1495 1492 1493 1494 1496 1497 1499 1500 1501 1503 1504 1506 1508 1510 1511 1512 1514 1515 1515 1516 1517 1517 1518 1518 1518 1518 1518 1518
1487 1479 1480 1483 1478 1477 1483 1477 1482 1486 1497 1508 1506 1518 1514 1501 1499 1493 1490 1491 1493 1494 1496 1498 1499 1500 1503 1505 1507 1508 1510 1512 1513 1514 1515 1515 1516 1516 1517 1517 1517 1517 1517 1516
1479 1474 1474 1474 1470 1470 1473 1479 1486 1493 1505 1521 1510 1516 1517 1503 1495 1490 1488 1489 1491 1493 1495 1496 1498 1500 1502 1503 1506 1508 1509 1510 1512 1513 1513 1514 1514 1515 1515 1515 1515 1515 1515 1515
1483 1474 1469 1468 1474 1472 1476 1496 1517 1521 1528 1524 1506 1512 1511 1491 1485 1485 1487 1489 1490 1492 1494 1495 1497 1500 1501 1502 1504 1506 1508 1509 1510 1511 1511 1512 1513 1513 1513 1513 1513 1513 1513 1513
1496 1492 1471 1466 1470 1476 1477 1490 1516 1529 1530 1522 1509 1513 1502 1486 1483 1483 1485 1487 1489 1491 1493 1494 1496 1498 1500 1502 1503 1505 1506 1507 1508 1509 1510 1511 1511 1511 1512 1512 1512 1511 1511 1511
1490 1487 1464 1460 1459 1465 1476 1483 1485 1505 1512 1523 1517 1507 1495 1487 1485 1484 1486 1486 1487 1489 1492 1493 1495 1497 1499 1501 1503 1504 1505 1506 1506 1507 1508 1508 1509 1509 1510 1510 1510 1509 1509 1509
1473 1483 1468 1460 1458 1461 1465 1473 1489 1504 1520 1528 1518 1512 1506 1493 1488 1484 1485 1485 1486 1488 1491 1493 1495 1496 1497 1499 1500 1502 1503 1503 1504 1505 1505 1506 1506 1507 1508 1508 1508 1507 1507 1507
1466 1480 1476 1468 1470 1472 1471 1476 1486 1499 1505 1522 1527 1515 1484 1483 1481 1482 1483 1483 1484 1487 1488 1491 1493 1494 1496 1497 1499 1500 1501 1502 1503 1503 1503 1503 1504 1505 1505 1506 1505 1505 1505 1505
1462 1476 1485 1475 1463 1458 1464 1470 1481 1499 1506 1509 1517 1508 1474 1475 1477 1479 1481 1483 1484 1486 1487 1490 1492 1493 1496 1497 1498 1498 1499 1500 1501 1501 1501 1502 1503 1503 1504 1504 1503 1503 1503 1502
1461 1476 1493 1490 1481 1468 1467 1466 1470 1482 1496 1506 1513 1502 1476 1476 1477 1478 1479 1481 1483 1484 1486 1489 1491 1493 1495 1496 1496 1497 1498 1499 1500 1500 1500 1500 1501 1501 1501 1501 1501 1501 1500 1499
1456 1474 1486 1493 1486 1475 1472 1468 1468 1478 1496 1501 1497 1491 1481 1478 1478 1478 1478 1479 1481 1483 1485 1487 1489 1491 1493 1494 1494 1496 1496 1497 1497 1498 1498 1498 1498 1499 1499 1499 1498 1498 1498 1497
1461 1474 1472 1470 1465 1464 1466 1466 1466 1472 1479 1488 1486 1483 1478 1476 1475 1476 1477 1479 1480 1482 1484 1486 1488 1490 1492 1493 1493 1494 1495 1495 1495 1496 1496 1496 1497 1497 1497 1496 1496 1495 1495 1494
1464 1473 1473 1472 1463 1463 1466 1464 1464 1466 1469 1474 1476 1479 1471 1472 1473 1476 1478 1478 1479 1480 1482 1485 1487 1489 1490 1491 1491 1492 1493 1493 1493 1493 1494 1494 1494 1494 1494 1494 1493 1493 1492 1492
1469 1474 1481 1484 1471 1469 1479 1467 1465 1467 1467 1470 1477 1474 1469 1471 1472 1474 1476 1476 1477 1479 1480 1482 1484 1486 1487 1489 1489 1490 1490 1491 1491 1491 1492 1492 1492 1491 1491 1491 1490 1490 1489 1488
1468 1475 1484 1487 1482 1492 1478 1459 1459 1463 1465 1465 1466 1466 1467 1468 1470 1473 1474 1475 1476 1477 1478 1480 1482 1484 1485 1486 1487 1488 1488 1488 1488 1489 1489 1489 1489 1489 1488 1488 1487 1487 1486 1485
1460 1471 1483 1491 1491 1485 1470 1461 1460 1465 1471 1465 1465 1467 1468 1470 1472 1475 1475 1476 1476 1476 1477 1479 1481 1482 1483 1484 1485 1485 1486 1486 1486 1487 1487 1487 1486 1486 1485 1484 1484 1484 1483 1482
1460 1466 1480 1487 1489 1492 1477 1461 1456 1461 1476 1467 1465 1467 1468 1470 1478 1478 1476 1476 1476 1477 1477 1479 1480 1481 1481 1482 1483 1484 1484 1484 1484 1484 1484 1484 1484 1483 1482 1482 1481 1481 1480 1479
1473 1475 1481 1486 1488 1483 1467 1460 1458 1477 1479 1468 1466 1467 1468 1469 1472 1474 1475 1475 1475 1476 1477 1478 1478 1479 1479 1480 1482 1482 1482 1482 1482 1482 1482 1482 1481 1481 1480 1480 1479 1478 1477 1477
1477 1481 1483 1485 1489 1486 1464 1462 1468 1472 1466 1466 1466 1467 1467 1469 1470 1472 1473 1474 1474 1475 1476 1476 1477 1477 1478 1478 1479 1479 1480 1480 1481 1480 1479 1479 1479 1479 1478 1478 1477 1476 1475 1474
1472 1473 1474 1477 1479 1468 1463 1463 1464 1464 1465 1465 1466 1467 1467 1468 1470 1471 1473 1473 1474 1475 1475 1476 1476 1476 1476 1477 1477 1477 1478 1478 1478 1478 1477 1477 1477 1476 1476 1475 1474 1473 1472 1471
1470 1466 1470 1472 1469 1466 1464 1463 1463 1463 1464 1465 1465 1466 1466 1467 1469 1470 1471 1472 1473 1474 1474 1475 1475 1475 1475 1476 1476 1476 1476 1476 1476 1476 1475 1475 1474 1474 1473 1472 1472 1471 1469 1468
1471 1469 1472 1473 1469 1467 1466 1465 1464 1464 1464 1464 1465 1465 1466 1467 1468 1469 1470 1471 1472 1472 1473 1474 1473 1474 1474 1474 1474 1474 1475 1474 1474 1473 1473 1473 1472 1472 1471 1470 1469 1468 1467 1466
1469 1470 1472 1474 1469 1469 1468 1465 1464 1464 1464 1465 1465 1466 1466 1466 1467 1469 1469 1471 1471 1471 1472 1472 1472 1473 1473 1473 1473 1473 1473 1472 1472 1471 1471 1470 1470 1469 1469 1468 1466 1465 1465 1464